Погода в Сент-Иасенте

Канада     45°37′31″N   72°56′53″W
темп.,
°C
ветер,
м/с
пор.,
м/с
влажн.,
%
обл.,
%
осадки,
мм/ч
давл.,
гПа
погр.,
м
16 июня, ср
ср1623:00+11зсз36930 0.0 1009100
02:00+8сз33780 0.0 100932
05:00+7сз22780 0.0 101018
08:00+12сз35725 0.0 1011438
11:00+17зсз46582 0.0 10101565
14:00+18з4858100 0.0 10082321
17:00+19ююз355565 0.0 1008205
20:00+15ссз347332 0.1 100953
17 июня, чт
чт1723:00+11зюз22655 0.0 101011
02:00+9юз227032 0.0 101117
05:00+9юз358796 0.0 101168
08:00+13юз44700 0.0 1013309
11:00+18з45490 0.0 10131346
14:00+20зюз46395 0.0 10121974
17:00+21юз575577 0.0 10121235
20:00+16ююз48765 0.0 1012142
18 июня, пт
пт1823:00+13ююз49815 0.0 1013141
02:00+12ююз4117772 0.0 1014196
05:00+11ююз4107883 0.0 1014208
08:00+15ююз611733 0.0 1014490
11:00+20юз710585 0.0 1013962
14:00+23ююз7105791 0.0 10111446
17:00+22ю4770100 0.1 1010360
20:00+20ю2274100 0.1 100819
19 июня, сб
сб1923:00+17з3795100 1.1 1009248
02:00+16юв3895100 1.1 1005171
05:00+16ю51288100 0.7 1003395
08:00+17ююз71392100 2.9 1002611
11:00+17ю71393100 4.8 1000538
14:00+23ююз8138099 6.1 9971577
17:00+22зюз716735 2.3 9971899
20:00+18зюз815755 2.4 999811
20 июня, вс
вс2023:00+16з7127899 0.0 1001893
02:00+16зюз71273100 0.0 1001878
05:00+16з597950 0.0 1002469
08:00+17зюз71082100 0.0 1005651
11:00+18зюз6877100 0.0 10061055
14:00+20з786768 0.1 10061266
17:00+21зюз676533 0.1 1007978
20:00+19з37786 0.1 1007167